Rock Springs, WY

1:40 AM MDT on July 26, 2016 (GMT -0600)
Rock Springs-Sweetwater

Weather History for KRKS - March, 2013

Change the Weather History Date:

Sunday, March 31, 2013

  Actual Average Record
Temperature  
Mean Temperature 44 °F 38 °F  
Max Temperature 62 °F 49 °F 72 °F (2012)
Min Temperature 26 °F 26 °F 2 °F (1954)
Degree Days  
Heating Degree Days 21 27  
Month to date heating degree days 915 977  
Since 1 July heating degree days 6396 6829  
Cooling Degree Days 0 0  
Month to date cooling degree days 0 0  
Year to date cooling degree days 0 0  
Moisture  
Dew Point 13 °F    
Average Humidity 37    
Maximum Humidity 63    
Minimum Humidity 10    
Precipitation  
Precipitation 0.00 in 0.03 in 0.45 in (1999)
Month to date precipitation T 0.68  
Year to date precipitation T 1.61  
Sea Level Pressure  
Sea Level Pressure 30.03 in    
Wind  
Wind Speed 10 mph (West)    
Max Wind Speed 24 mph    
Max Gust Speed 28 mph    
Visibility 10 miles    
Events      
T = Trace of Precipitation, MM = Missing Value Source: NWS Daily Summary

Daily Weather History Graph

Daily Weather History Graph

Search for Another Location

Airport or City:

Trip Planner

Search our weather history database for the weather conditions in past years. The results will help you decide how hot, cold, wet, or windy it might be!

Date:

Astronomy

Mar. 31, 2013 Rise Set
Actual Time 7:00 AM MDT 7:40 PM MDT
Civil Twilight 6:32 AM MDT 8:08 PM MDT
Nautical Twilight 5:59 AM MDT 8:42 PM MDT
Astronomical Twilight 5:25 AM MDT 9:16 PM MDT
Moon No Moon Rise 9:47 AM MDT (3/31)
Length of Visible Light 13h 36m
Length of Day
12h 40m
Waning Gibbous, 77% of the Moon is Illuminated
Mar 31
Waning Gibbous
Apr 2
Last Quarter
Apr 10
New
Apr 18
First Quarter
Apr 25
Full

Hourly Weather History & Observations

Time (MDT) Temp. Windchill Dew Point Humidity Pressure Visibility Wind Dir Wind Speed Gust Speed Precip Events Conditions
12:54 AM 37.0 °F - 16.0 °F 42% 30.10 in 10.0 mi Calm Calm - N/A   Clear
1:54 AM 35.1 °F - 14.0 °F 42% 30.10 in 10.0 mi Calm Calm - N/A   Clear
2:54 AM 30.0 °F 21.1 °F 14.0 °F 51% 30.11 in 10.0 mi WSW 10.4 mph - N/A   Clear
3:54 AM 30.0 °F 20.5 °F 16.0 °F 56% 30.08 in 10.0 mi WSW 11.5 mph - N/A   Clear
4:54 AM 27.0 °F 20.5 °F 15.1 °F 61% 30.11 in 10.0 mi SW 5.8 mph - N/A   Clear
5:54 AM 28.0 °F 20.8 °F 16.0 °F 61% 30.09 in 10.0 mi WSW 6.9 mph - N/A   Clear
6:54 AM 27.0 °F 18.7 °F 16.0 °F 63% 30.10 in 10.0 mi SW 8.1 mph - N/A   Clear
7:54 AM 30.9 °F - 18.0 °F 59% 30.13 in 10.0 mi Calm Calm - N/A   Clear
8:54 AM 36.0 °F 31.1 °F 19.9 °F 52% 30.11 in 10.0 mi WNW 5.8 mph - N/A   Clear
9:54 AM 42.1 °F 36.1 °F 21.0 °F 43% 30.09 in 10.0 mi West 10.4 mph - N/A   Clear
10:54 AM 46.9 °F - 21.0 °F 36% 30.08 in 10.0 mi West 12.7 mph - N/A   Clear
11:54 AM 51.1 °F - 19.9 °F 29% 30.06 in 10.0 mi WNW 17.3 mph 21.9 mph N/A   Clear
12:54 PM 54.0 °F - 16.0 °F 22% 30.03 in 10.0 mi WSW 12.7 mph 23.0 mph N/A   Clear
1:54 PM 57.0 °F - 10.9 °F 16% 30.00 in 10.0 mi WSW 13.8 mph 23.0 mph N/A   Clear
2:54 PM 59.0 °F - 10.9 °F 15% 29.99 in 10.0 mi WSW 20.7 mph 25.3 mph N/A   Clear
3:54 PM 61.0 °F - 7.0 °F 12% 29.95 in 10.0 mi West 16.1 mph 24.2 mph N/A   Clear
4:54 PM 61.0 °F - 6.1 °F 11% 29.96 in 10.0 mi West 16.1 mph 23.0 mph N/A   Clear
5:54 PM 59.0 °F - 5.0 °F 12% 29.95 in 10.0 mi WNW 16.1 mph 21.9 mph N/A   Clear
6:54 PM 57.0 °F - 1.9 °F 11% 29.96 in 10.0 mi WNW 15.0 mph - N/A   Clear
7:54 PM 50.0 °F - 3.0 °F 15% 29.96 in 10.0 mi WNW 6.9 mph - N/A   Clear
8:54 PM 46.0 °F 41.4 °F 3.9 °F 18% 29.97 in 10.0 mi West 9.2 mph - N/A   Clear
9:54 PM 48.9 °F - 3.9 °F 16% 29.94 in 10.0 mi Calm Calm - N/A   Clear
10:54 PM 43.0 °F 37.2 °F 14.0 °F 31% 29.96 in 10.0 mi NE 10.4 mph - N/A   Clear
11:54 PM 39.0 °F 31.8 °F 19.9 °F 46% 29.96 in 10.0 mi NE 11.5 mph - N/A   Clear